STARLINK-1542, 46073

Orbit data source: Space-Track

STARLINK-1542, 46073 is a payload satellite owned by SpaceX/Seattle (US) in LEO that was launched on Fri, 07 Aug 2020 UTC via an FALCON 9 launch vehicle from the Air Force Eastern Test Range (AFETR). Payload-class satellites include a variety of spacecraft equipped with specific instruments for various scientific and technological missions. These include communications satellites like Starlink; space stations such as the ISS; scientific satellites like the Hubble; Earth observation satellites from companies like Planet Labs, Umbra, and HawkEye 360; GPS; miniature CubeSats for education and research; and military/defense satellites.

Loading next visibility...
Identifier
46073, 2020-055AY
Orbit
LEO
Country
Flag of USUS
Related business
Manufacturer
SpaceX/Seattle
Mission
Operational Commercial Communications
Bus & Motor
STARLINK, Unknown motor
Mass
260 kg wet, ~248 kg dry
Launch date (UTC)
2020-08-07 (5 years ago)
Launch vehicle
FALCON 9
Launch site
Air Force Eastern Test Range (AFETR)
Object type
Payload
Rocket body
Debris
Shape & HBR
Box + 1 Pan, 4.4 m
Radar Cross Section
13.562 m², Large (>1 m²)

Expand to show TLE details & history
Last TLE update: 14 hours ago

TLE from 14 hours ago
0 STARLINK-1542
1 46073U 20055AY  25261.10808724  .00010504  00000-0  72315-3 0  9999
2 46073  53.0532 151.3706 0001277  81.8206 278.2928 15.06394235283295
Epoch: 2025-09-18T02:35Z
TLE epoch observation values (Epoch: 2025-09-18T02:35:38.737Z)
Latitude
-0.00001°
Longitude
115.18477°
Altitude
547.981 km
Speed
7.589 km/s
True Right ascension
10h 05m 28s
True Declination
0° 00' 00"
Sunlit
Object was in daylight at epoch
Visualization orbit readout
Latitude
Unknown
Longitude
Unknown
Altitude
Unknown
Speed
Unknown
Apparent Right ascension
Unknown
Apparent Declination
Unknown
Sunlit
N/A
Visualization observer readout
Local Sidereal Time
09:53:15
Azimuth
Unknown
Elevation
Unknown
Doppler factor
Unknown
Orbital elements
Apogee altitude
548.385 km
Perigee altitude
546.616 km
Semi-major axis
6,925.637 km
Eccentricity
0.00013
Inclination
53.0532°
RAAN
151.3706°
Arg. of periapsis
81.8206°
True anomaly
278.27832°
Mean anomaly
278.2928°
Eccentric anomaly
278.28556°
Mean motion
3.76577 °/min
Orbital period
95.6 mins
BSTAR
0.00072315
Loading maneuver chart data...
Computing Atmospheric mass density...
Loading historical data...
Loading historical data...
Loading historical data...
Loading historical data...
Loading historical data...
Loading historical data...
Loading historical data...

Documentation

Showing up to 5 results
|